{"data":{"norad_id":64521,"intl_designator":"2025-134X","name":"KUIPER-00061","alt_names":[],"object_type":"PAYLOAD","status":"ACTIVE","operator":null,"country":"US","launch_date":"2025-06-23","launch_site_code":"AFETR","launch_vehicle":null,"mission":null,"orbit_class":"UNKNOWN","rcs_meters":null,"size_class":null,"mass_kg":null,"dimensions":null,"purposes":[],"wikipedia_slug":null,"has_3d_model":false,"image_url":null,"decayed_at":null,"tle_current":{"epoch":"2026-09-21T21:03:25.034976Z","epoch_age_seconds":63092,"freshness":"FRESH","line1":"1 64521U 25134X   26264.87737309  .00001672  00000+0  24823-3 0  9994","line2":"2 64521  51.8996  80.5602 0000893 122.6553 237.4496 14.79940648 69184","mean_motion":14.79940648,"eccentricity":8.93e-5,"inclination_deg":51.8996,"raan_deg":80.5602,"arg_perigee_deg":122.6553,"mean_anomaly_deg":237.4496,"bstar":0.00024823,"rev_number":6918,"period_min":97.301199338367,"perigee_km":628.8857034283,"apogee_km":630.13726944798,"semimajor_km":7007.6484864381,"source":"CELESTRAK","updated_at":"2026-09-22T09:00:29.812450Z"}}}